Miscellaneous Local Product
Issued by NWS North Platte, NE

Home | Current Version | Previous Version | Graphics & Text | Print | Product List | Glossary On
Versions: 1 2 3 4 5 6 7 8 9 10 11 12 13 14 15 16 17 18 19 20 21 22 23 24 25 26 27 28 29 30 31 32 33 34 35 36 37 38 39 40 41 42 43 44 45 46 47 48 49 50
000
AXUS43 KLBF 301610
MISLBF


WESTERN AND NORTH CENTRAL NEBRASKA HOURLY WEATHER ROUNDUP
NATIONAL WEATHER SERVICE NORTH PLATTE NE
1100 AM CDT MON MAR 30 2015

***STATIONS NOT REPORTING VARIABLES SUCH AS SKY/WEATHER OR
PRESSURE ARE PROVIDED BY THE NEBRASKA DEPARTMENT OF
ROADS...RAWS...AND APRS NETWORKS...AND ARE NOT UNDER
NATIONAL WEATHER SERVICE QUALITY CONTROL***

...OBSERVATIONS IN AND NEAR THE EASTERN PANHANDLE OF NEBRASKA...

CITY           SKY/WX    TMP DP  RH WIND       PRES   REMARKS
PINE RIDGE     PTSUNNY   56  27  32 W6        30.07
CHADRON        MOSUNNY   62  27  26 NW15      30.07S
ALLIANCE       SUNNY     64  24  21 NW14G20   30.08S
SIDNEY         SUNNY     62  20  19 NW21G28   30.12R
WHITECLAY        N/A     55  27  33 NW6         N/A
CRESCENT LAKE    N/A     61  26  26 N10         N/A
BIG SPRINGS      N/A     50  28  43 W12         N/A
$$

...OBSERVATIONS IN NORTH CENTRAL NEBRASKA...

CITY           SKY/WX    TMP DP  RH WIND       PRES   REMARKS
VALENTINE      SUNNY     65  26  23 W12       30.01R
THEDFORD       MOSUNNY   62  28  27 NW7       30.04S
AINSWORTH      SUNNY     64  25  23 W12       30.01S
O`NEILL        MOSUNNY   61  26  26 W16G23    30.00R
ORD            MOSUNNY   63  22  20 SW24G32   30.02F
BROKEN BOW     SUNNY     64  28  25 SW16      30.03F
BROWNLEE         N/A     63  32  31 W8          N/A
SPRINGVIEW       N/A     60  30  32 W7          N/A
BREWSTER         N/A     59  25  27 W13         N/A
ROSE             N/A     60  28  30 S10         N/A
NEWPORT          N/A     63  27  25 W17         N/A
SARGENT          N/A     62  28  27 W10G18      N/A
COMSTOCK         N/A     67  25  20 SW21        N/A
EWING            N/A     64  28  25 W17G24      N/A
$$

...OBSERVATIONS IN SOUTHWEST NEBRASKA AND FAR NORTHEAST COLORADO...

CITY           SKY/WX    TMP DP  RH WIND       PRES   REMARKS
WRAY           FAIR      66  23  19 NW16G26   30.09R
IMPERIAL         N/A     59  25  27 NW10      30.07S
OGALLALA       SUNNY     61  27  27 NW10      30.07R
NORTH PLATTE   SUNNY     59  27  29 W10       30.06S
MCCOOK         SUNNY     67  28  23 SW14      30.05F
LEXINGTON      SUNNY     60  25  26 W20G26    30.07S
PAXTON           N/A     48  29  47 W7          N/A
SUTHERLAND       N/A     52  26  35 W10         N/A
BRADY            N/A     58  30  34 S3G13       N/A
GOTHENBURG       N/A     55  23  28 SW8         N/A
CALLAWAY         N/A     57  30  35 SW20        N/A
$$

...NORTH PLATTE AREA...

CITY           SKY/WX    TMP DP  RH WIND       PRES   REMARKS
AIRPORT        SUNNY     59  27  29 W10       30.06S
DOWNTOWN         N/A     58  29  33 W3          N/A
$$

...SOME WEATHER OBSERVATIONS FROM AROUND THE REGION...

CITY           SKY/WX    TMP DP  RH WIND       PRES   REMARKS
DENVER         MOSUNNY   58  27  30 S5        30.18R
LARAMIE        SUNNY     50  16  25 NW7       30.24R
CHEYENNE       SUNNY     57  17  21 NW17G26   30.19R
SCOTTSBLUFF    SUNNY     58  25  28 W13       30.12R
RAPID CITY     PTSUNNY   61  28  28 NW24      30.05R
PIERRE         CLOUDY    57  30  35 NW15      29.94S
WINNER         FAIR      68  25  19 NW20      29.97R
SIOUX FALLS    PTSUNNY   58  21  24 W15G22    29.92S
OMAHA          PTSUNNY   62  28  27 SW10      30.06F
GRAND ISLAND   SUNNY     62  24  23 SW26G33   30.07F
KANSAS CITY    MOSUNNY   62  32  32 SW15      30.15F
WICHITA        MOSUNNY   63  31  30 S12       30.19S
HAYS           SUNNY     64  36  34 S22       30.12F
LIBERAL        SUNNY     64  36  34 S24G30    30.18F
GOODLAND       SUNNY     64  29  26 W10       30.09F
$$



USA.gov is the U.S. government's official web portal to all federal, state and local government web resources and services.